Park Rapids, MN

4:43 PM CDT on August 20, 2017 (GMT -0500)
Park Rapids Municipal

Weather History for KPKD - May, 2012

Change the Weather History Date:

Sunday, May 6, 2012

  Actual Average Record
Temperature  
Mean Temperature 52 °F -  
Max Temperature 57 °F 64 °F 90 °F (2016)
Min Temperature 46 °F 35 °F 22 °F (1974)
Degree Days  
Heating Degree Days 14    
Growing Degree Days 2 (Base 50)    
Moisture  
Dew Point 48 °F    
Average Humidity 91    
Maximum Humidity 100    
Minimum Humidity 82    
Precipitation  
Precipitation 0.07 in - - ()
Sea Level Pressure  
Sea Level Pressure 29.97 in    
Wind  
Wind Speed 7 mph (SE)    
Max Wind Speed 16 mph    
Max Gust Speed 21 mph    
Visibility 6 miles    
Events Fog , Rain    
Averages and records for this station are not official NWS values.
T = Trace of Precipitation, MM = Missing Value Source: NWS Daily Summary

Daily Weather History Graph

Daily Weather History Graph

Search for Another Location

Airport or City:

Trip Planner

Search our weather history database for the weather conditions in past years. The results will help you decide how hot, cold, wet, or windy it might be!

Date:

Astronomy

May. 06, 2012 Rise Set
Actual Time 5:56 AM CDT 8:37 PM CDT
Civil Twilight 5:21 AM CDT 9:12 PM CDT
Nautical Twilight 4:38 AM CDT 9:56 PM CDT
Astronomical Twilight 3:47 AM CDT 10:48 PM CDT
Moon 9:49 PM CDT (5/6) 6:04 AM CDT (5/6)
Length of Visible Light 15h 50m
Length of Day
14h 41m
Full, 100% of the Moon is Illuminated
May 6
Full
May 12
Last Quarter
May 20
New
May 28
First Quarter
Jun 4
Full

Hourly Weather History & Observations

Time (CDT) Temp. Windchill Dew Point Humidity Pressure Visibility Wind Dir Wind Speed Gust Speed Precip Events Conditions
12:18 AM 50.0 °F - 46.4 °F 87% 29.99 in 6.0 mi East 16.1 mph 20.7 mph N/A   Overcast
12:53 AM 48.9 °F - 46.9 °F 93% 29.99 in 9.0 mi East 10.4 mph - N/A   Overcast
1:53 AM 48.0 °F - 46.0 °F 93% 29.97 in 10.0 mi East 10.4 mph - N/A   Mostly Cloudy
2:53 AM 48.2 °F - 44.6 °F 87% 29.96 in 10.0 mi ENE 6.9 mph - N/A   Overcast
3:00 AM 48.2 °F - 44.6 °F 87% 29.96 in 10.0 mi NE 6.9 mph - N/A   Overcast
3:43 AM 46.4 °F 41.9 °F 44.6 °F 93% 29.93 in 10.0 mi ENE 9.2 mph - N/A   Overcast
3:53 AM 46.9 °F - 44.1 °F 90% 29.95 in 10.0 mi ENE 6.9 mph - N/A   Overcast
4:12 AM 46.4 °F 43.5 °F 44.6 °F 93% 29.95 in 10.0 mi ENE 5.8 mph - N/A   Overcast
4:53 AM 48.0 °F - 45.0 °F 89% 29.96 in 10.0 mi ESE 8.1 mph - N/A   Overcast
5:19 AM 48.2 °F - 44.6 °F 87% 29.95 in 10.0 mi ESE 6.9 mph - 0.00 in Rain Light Rain
5:41 AM 46.4 °F 42.9 °F 44.6 °F 93% 29.94 in 5.0 mi ESE 6.9 mph - 0.01 in Rain Light Rain
5:53 AM 46.9 °F - 45.0 °F 93% 29.95 in 5.0 mi ESE 8.1 mph - 0.01 in Rain Light Rain
6:18 AM 46.4 °F 42.9 °F 44.6 °F 93% 29.93 in 5.0 mi ESE 6.9 mph - 0.00 in Rain Light Rain
6:53 AM 46.9 °F - 45.0 °F 93% 29.94 in 4.0 mi ESE 5.8 mph - 0.01 in Rain Light Rain
7:53 AM 48.0 °F - 46.0 °F 93% 29.96 in 4.0 mi ESE 3.5 mph - 0.00 in   Overcast
8:51 AM 48.2 °F - 46.4 °F 93% 29.97 in 1.8 mi Calm Calm - 0.00 in Rain Light Rain
8:52 AM 48.9 °F - 46.9 °F 93% 29.99 in 1.8 mi Calm Calm - 0.01 in Rain Light Rain
9:53 AM 48.9 °F - 48.0 °F 97% 30.00 in 1.5 mi Calm Calm - 0.02 in   Overcast
10:04 AM 48.2 °F - 48.2 °F 100% 29.98 in 1.5 mi Calm Calm - 0.01 in   Overcast
10:53 AM 50.0 °F - 48.0 °F 93% 30.00 in 2.0 mi Calm Calm - 0.01 in   Overcast
11:03 AM 50.0 °F - 48.2 °F 94% 29.98 in 4.0 mi Calm Calm - 0.01 in   Overcast
11:12 AM 50.0 °F - 48.2 °F 94% 29.98 in 5.0 mi Calm Calm - 0.01 in   Overcast
11:53 AM 51.1 °F - 48.9 °F 92% 30.01 in 10.0 mi Calm Calm - 0.01 in   Overcast
12:53 PM 53.1 °F - 51.1 °F 93% 29.99 in 10.0 mi SSW 4.6 mph - N/A   Overcast
1:53 PM 54.0 °F - 51.1 °F 90% 30.00 in 6.0 mi WNW 4.6 mph - N/A   Overcast
2:53 PM 55.0 °F - 52.0 °F 89% 29.99 in 6.0 mi WNW 4.6 mph - N/A   Overcast
3:21 PM 55.4 °F - 51.8 °F 88% 29.98 in 10.0 mi WNW 6.9 mph - N/A   Overcast
3:53 PM 55.0 °F - 51.1 °F 86% 29.99 in 10.0 mi NNW 6.9 mph - N/A   Overcast
4:11 PM 55.4 °F - 51.8 °F 88% 29.99 in 10.0 mi WNW 5.8 mph - N/A   Overcast
4:53 PM 55.0 °F - 53.1 °F 93% 30.00 in 9.0 mi WSW 4.6 mph - N/A   Overcast
5:53 PM 57.0 °F - 52.0 °F 83% 29.99 in 10.0 mi Calm Calm - N/A   Overcast
6:53 PM 57.0 °F - 52.0 °F 83% 29.99 in 10.0 mi SE 8.1 mph - N/A   Scattered Clouds
7:53 PM 57.0 °F - 52.0 °F 83% 29.98 in 10.0 mi SE 8.1 mph - N/A   Scattered Clouds
8:01 PM 57.2 °F - 51.8 °F 82% 29.96 in 10.0 mi SE 6.9 mph - N/A   Mostly Cloudy
8:53 PM 55.9 °F - 52.0 °F 87% 29.98 in 10.0 mi South 6.9 mph - N/A   Overcast
9:16 PM 53.6 °F - 51.8 °F 94% 29.95 in 10.0 mi South 6.9 mph - N/A   Overcast
9:53 PM 54.0 °F - 51.1 °F 90% 29.99 in 8.0 mi South 4.6 mph - N/A   Mostly Cloudy
10:08 PM 51.8 °F - 50.0 °F 94% 29.97 in 7.0 mi South 5.8 mph - N/A   Scattered Clouds
10:47 PM 50.0 °F - 48.2 °F 94% 29.97 in 1.8 mi South 3.5 mph - N/A   Clear
10:53 PM 50.0 °F - 48.9 °F 96% 29.99 in 1.2 mi South 3.5 mph - N/A   Clear
10:59 PM 48.2 °F - 48.2 °F 100% 29.97 in 0.8 mi Variable 5.8 mph - N/A   Mist
11:10 PM 51.8 °F - 50.0 °F 94% 29.97 in 2.0 mi South 4.6 mph - N/A   Mostly Cloudy
11:16 PM 51.8 °F - 50.0 °F 94% 29.97 in 0.8 mi SSW 3.5 mph - N/A   Mist
11:26 PM 51.8 °F - 50.0 °F 94% 29.96 in 0.2 mi South 4.6 mph - N/A Fog Fog
11:53 PM 48.9 °F - 48.0 °F 97% 29.98 in 0.2 mi South 3.5 mph - N/A Fog Fog